{"data":{"norad_id":53705,"intl_designator":"2022-107F","name":"STARLINK-4717","alt_names":[],"object_type":"PAYLOAD","status":"ACTIVE","operator":null,"country":"US","launch_date":"2022-09-05","launch_site_code":"AFETR","launch_vehicle":null,"mission":null,"orbit_class":"UNKNOWN","rcs_meters":null,"size_class":null,"mass_kg":null,"dimensions":null,"purposes":["comms"],"wikipedia_slug":null,"has_3d_model":false,"image_url":null,"decayed_at":null,"tle_current":{"epoch":"2026-05-25T00:24:54.021024Z","epoch_age_seconds":66703,"freshness":"FRESH","line1":"1 53705U 22107F   26145.01729191 -.00001539  00000+0 -78622-4 0  9998","line2":"2 53705  53.2146 261.6882 0000990  95.2041 264.9064 15.08845203206370","mean_motion":15.08845203,"eccentricity":9.9e-5,"inclination_deg":53.2146,"raan_deg":261.6882,"arg_perigee_deg":95.2041,"mean_anomaly_deg":264.9064,"bstar":-7.8622e-5,"rev_number":20637,"period_min":95.437225577341,"perigee_km":539.04261693623,"apogee_km":540.41235410436,"semimajor_km":6917.8644855203,"source":"CELESTRAK","updated_at":"2026-05-25T13:38:17.532526Z"}}}